Time,TemperatureF,DewpointF,PressureIn,WindDirection,WindDirectionDegrees,WindSpeedMPH,WindSpeedGustMPH,Humidity,HourlyPrecipIn,Conditions,Clouds,dailyrainin,SolarRadiationWatts/m^2,SoftwareType,DateUTC
2013-03-08 00:02:00,34.0,26.0,-100.00,NE,44,2.0,6.0,72,0.00,,,0.00,0.000000,,2013-03-08 05:02:00,
2013-03-08 00:33:00,34.0,26.0,-100.00,ENE,65,3.0,7.0,72,0.00,,,0.00,0.000000,,2013-03-08 05:33:00,
2013-03-08 00:42:00,34.0,26.0,-100.00,ENE,65,3.0,7.0,72,0.00,,,0.00,0.000000,,2013-03-08 05:42:00,
2013-03-08 00:52:00,34.0,26.0,-100.00,ENE,65,3.0,7.0,72,0.00,,,0.00,0.000000,,2013-03-08 05:52:00,
2013-03-08 01:02:00,34.0,26.0,-100.00,ENE,65,3.0,7.0,72,0.00,,,0.00,0.000000,,2013-03-08 06:02:00,
2013-03-08 01:32:00,34.0,26.0,-100.00,NE,34,4.0,7.0,71,0.00,,,0.00,0.000000,,2013-03-08 06:32:00,
2013-03-08 01:42:00,34.0,26.0,-100.00,NE,34,4.0,7.0,71,0.00,,,0.00,0.000000,,2013-03-08 06:42:00,
2013-03-08 01:52:00,34.0,26.0,-100.00,NE,34,4.0,7.0,71,0.00,,,0.00,0.000000,,2013-03-08 06:52:00,
2013-03-08 02:01:00,34.0,26.0,-100.00,NE,34,4.0,7.0,71,0.00,,,0.00,0.000000,,2013-03-08 07:01:00,
2013-03-08 02:32:00,33.0,24.0,-100.00,ENE,57,3.0,8.0,68,0.00,,,0.00,0.000000,,2013-03-08 07:32:00,
2013-03-08 02:42:00,33.0,24.0,-100.00,ENE,57,3.0,8.0,68,0.00,,,0.00,0.000000,,2013-03-08 07:42:00,
2013-03-08 02:52:00,33.0,24.0,-100.00,ENE,57,3.0,8.0,68,0.00,,,0.00,0.000000,,2013-03-08 07:52:00,
2013-03-08 03:01:00,33.0,24.0,-100.00,ENE,57,3.0,8.0,68,0.00,,,0.00,0.000000,,2013-03-08 08:01:00,
2013-03-08 03:32:00,30.0,24.0,-100.00,WNW,286,0.0,4.0,79,0.00,,,0.00,0.000000,,2013-03-08 08:32:00,
2013-03-08 03:42:00,30.0,24.0,-100.00,WNW,286,0.0,4.0,79,0.00,,,0.00,0.000000,,2013-03-08 08:42:00,
2013-03-08 03:52:00,30.0,24.0,-100.00,WNW,286,0.0,4.0,79,0.00,,,0.00,0.000000,,2013-03-08 08:52:00,
2013-03-08 04:03:00,30.0,24.0,-100.00,WNW,286,0.0,4.0,79,0.00,,,0.00,0.000000,,2013-03-08 09:03:00,
2013-03-08 04:32:00,28.0,24.0,-100.00,WSW,252,2.0,2.0,86,0.00,,,0.00,0.000000,,2013-03-08 09:32:00,
2013-03-08 04:42:00,28.0,24.0,-100.00,WSW,252,2.0,2.0,86,0.00,,,0.00,0.000000,,2013-03-08 09:42:00,
2013-03-08 04:52:00,28.0,24.0,-100.00,WSW,252,2.0,2.0,86,0.00,,,0.00,0.000000,,2013-03-08 09:52:00,
2013-03-08 05:01:00,28.0,24.0,-100.00,WSW,252,2.0,2.0,86,0.00,,,0.00,0.000000,,2013-03-08 10:01:00,
2013-03-08 05:32:00,27.0,25.0,-100.00,SW,223,1.0,2.0,91,0.00,,,0.00,0.000000,,2013-03-08 10:32:00,
2013-03-08 05:42:00,27.0,25.0,-100.00,SW,223,1.0,2.0,91,0.00,,,0.00,0.000000,,2013-03-08 10:42:00,
2013-03-08 05:52:00,27.0,25.0,-100.00,SW,223,1.0,2.0,91,0.00,,,0.00,0.000000,,2013-03-08 10:52:00,
2013-03-08 06:01:00,27.0,25.0,-100.00,SW,223,1.0,2.0,91,0.00,,,0.00,0.000000,,2013-03-08 11:01:00,
2013-03-08 06:32:00,26.0,24.0,-100.00,SW,234,2.0,3.0,92,0.00,,,0.00,0.000000,,2013-03-08 11:32:00,
2013-03-08 06:42:00,26.0,24.0,-100.00,SW,234,2.0,3.0,92,0.00,,,0.00,0.000000,,2013-03-08 11:42:00,
2013-03-08 06:52:00,26.0,24.0,-100.00,SW,234,2.0,3.0,92,0.00,,,0.00,0.000000,,2013-03-08 11:52:00,
2013-03-08 07:02:00,26.0,24.0,-100.00,SW,234,2.0,3.0,92,0.00,,,0.00,0.000000,,2013-03-08 12:02:00,
2013-03-08 07:32:00,25.0,23.0,-100.00,ESE,118,0.0,3.0,93,0.00,,,0.00,2.000000,,2013-03-08 12:32:00,
2013-03-08 07:43:00,25.0,23.0,-100.00,ESE,118,0.0,3.0,93,0.00,,,0.00,2.000000,,2013-03-08 12:43:00,
2013-03-08 07:53:00,25.0,23.0,-100.00,ESE,118,0.0,3.0,93,0.00,,,0.00,2.000000,,2013-03-08 12:53:00,
2013-03-08 08:02:00,25.0,23.0,-100.00,ESE,118,0.0,3.0,93,0.00,,,0.00,2.000000,,2013-03-08 13:02:00,
2013-03-08 08:32:00,31.0,26.0,-100.00,East,88,2.0,3.0,83,0.00,,,-99.99,69.000000,,2013-03-08 13:32:00,
2013-03-08 08:42:00,31.0,26.0,-100.00,East,88,2.0,3.0,83,0.00,,,-99.99,69.000000,,2013-03-08 13:42:00,
2013-03-08 08:52:00,31.0,26.0,-100.00,East,88,2.0,3.0,83,0.00,,,-99.99,69.000000,,2013-03-08 13:52:00,
2013-03-08 09:03:00,31.0,26.0,-100.00,East,88,2.0,3.0,83,0.00,,,-99.99,69.000000,,2013-03-08 14:03:00,
2013-03-08 09:33:00,37.0,24.0,-100.00,East,84,3.0,5.0,60,0.00,,,0.00,282.000000,,2013-03-08 14:33:00,
2013-03-08 09:42:00,37.0,24.0,-100.00,East,84,3.0,5.0,60,0.00,,,0.00,282.000000,,2013-03-08 14:42:00,
2013-03-08 09:53:00,37.0,24.0,-100.00,East,84,3.0,5.0,60,0.00,,,0.00,282.000000,,2013-03-08 14:53:00,
2013-03-08 10:03:00,37.0,24.0,-100.00,East,84,3.0,5.0,60,0.00,,,0.00,282.000000,,2013-03-08 15:03:00,
2013-03-08 10:32:00,39.0,24.0,-100.00,NE,39,3.0,10.0,55,0.00,,,0.00,466.000000,,2013-03-08 15:32:00,
2013-03-08 10:43:00,39.0,24.0,-100.00,NE,39,3.0,10.0,55,0.00,,,0.00,466.000000,,2013-03-08 15:43:00,
2013-03-08 10:53:00,39.0,24.0,-100.00,NE,39,3.0,10.0,55,0.00,,,0.00,466.000000,,2013-03-08 15:53:00,
2013-03-08 11:02:00,39.0,24.0,-100.00,NE,39,3.0,10.0,55,0.00,,,0.00,466.000000,,2013-03-08 16:02:00,
2013-03-08 11:32:00,41.0,24.0,-100.00,ENE,59,5.0,9.0,50,0.00,,,0.00,615.000000,,2013-03-08 16:32:00,
2013-03-08 11:42:00,41.0,24.0,-100.00,ENE,59,5.0,9.0,50,0.00,,,0.00,615.000000,,2013-03-08 16:42:00,
2013-03-08 11:52:00,41.0,24.0,-100.00,ENE,59,5.0,9.0,50,0.00,,,0.00,615.000000,,2013-03-08 16:52:00,
2013-03-08 12:03:00,41.0,24.0,-100.00,ENE,59,5.0,9.0,50,0.00,,,0.00,615.000000,,2013-03-08 17:03:00,
2013-03-08 12:32:00,44.0,26.0,-100.00,ESE,103,6.0,11.0,49,0.00,,,0.00,705.000000,,2013-03-08 17:32:00,
2013-03-08 12:42:00,44.0,26.0,-100.00,ESE,103,6.0,11.0,49,0.00,,,0.00,705.000000,,2013-03-08 17:42:00,
2013-03-08 12:52:00,44.0,26.0,-100.00,ESE,103,6.0,11.0,49,0.00,,,0.00,705.000000,,2013-03-08 17:52:00,
2013-03-08 13:02:00,44.0,26.0,-100.00,ESE,103,6.0,11.0,49,0.00,,,0.00,705.000000,,2013-03-08 18:02:00,
2013-03-08 13:32:00,45.0,25.0,-100.00,ENE,63,5.0,11.0,45,0.00,,,0.00,736.000000,,2013-03-08 18:32:00,
2013-03-08 13:42:00,45.0,25.0,-100.00,ENE,63,5.0,11.0,45,0.00,,,0.00,736.000000,,2013-03-08 18:42:00,
2013-03-08 13:52:00,45.0,25.0,-100.00,ENE,63,5.0,11.0,45,0.00,,,0.00,736.000000,,2013-03-08 18:52:00,
2013-03-08 14:01:00,45.0,25.0,-100.00,ENE,63,5.0,11.0,45,0.00,,,0.00,736.000000,,2013-03-08 19:01:00,
2013-03-08 14:32:00,49.0,26.0,-100.00,NNW,344,2.0,9.0,41,0.00,,,0.00,708.000000,,2013-03-08 19:32:00,
2013-03-08 14:42:00,49.0,26.0,-100.00,NNW,344,2.0,9.0,41,0.00,,,0.00,708.000000,,2013-03-08 19:42:00,
2013-03-08 14:52:00,49.0,26.0,-100.00,NNW,344,2.0,9.0,41,0.00,,,0.00,708.000000,,2013-03-08 19:52:00,
2013-03-08 15:01:00,49.0,26.0,-100.00,NNW,344,2.0,9.0,41,0.00,,,0.00,708.000000,,2013-03-08 20:01:00,
2013-03-08 15:32:00,50.0,25.0,-100.00,North,353,3.0,8.0,38,0.00,,,0.00,623.000000,,2013-03-08 20:32:00,
2013-03-08 15:42:00,50.0,25.0,-100.00,North,353,3.0,8.0,38,0.00,,,0.00,623.000000,,2013-03-08 20:42:00,
2013-03-08 15:53:00,50.0,25.0,-100.00,North,353,3.0,8.0,38,0.00,,,0.00,623.000000,,2013-03-08 20:53:00,
2013-03-08 16:02:00,50.0,25.0,-100.00,North,353,3.0,8.0,38,0.00,,,0.00,623.000000,,2013-03-08 21:02:00,
2013-03-08 16:33:00,52.0,27.0,-100.00,West,272,2.0,7.0,37,0.00,,,0.00,487.000000,,2013-03-08 21:33:00,
2013-03-08 16:42:00,52.0,27.0,-100.00,West,272,2.0,7.0,37,0.00,,,0.00,487.000000,,2013-03-08 21:42:00,
2013-03-08 16:52:00,52.0,27.0,-100.00,West,272,2.0,7.0,37,0.00,,,0.00,487.000000,,2013-03-08 21:52:00,
2013-03-08 17:01:00,52.0,27.0,-100.00,West,272,2.0,7.0,37,0.00,,,0.00,487.000000,,2013-03-08 22:01:00,
2013-03-08 17:32:00,51.0,26.0,-100.00,ENE,70,4.0,7.0,38,0.00,,,0.00,270.000000,,2013-03-08 22:32:00,
2013-03-08 17:42:00,51.0,26.0,-100.00,ENE,70,4.0,7.0,38,0.00,,,0.00,270.000000,,2013-03-08 22:42:00,
2013-03-08 17:53:00,51.0,26.0,-100.00,ENE,70,4.0,7.0,38,0.00,,,0.00,270.000000,,2013-03-08 22:53:00,
2013-03-08 18:02:00,51.0,26.0,-100.00,ENE,70,4.0,7.0,38,0.00,,,0.00,270.000000,,2013-03-08 23:02:00,
2013-03-08 18:32:00,48.0,25.0,-100.00,SSE,148,3.0,6.0,41,0.00,,,0.00,114.000000,,2013-03-08 23:32:00,
2013-03-08 18:42:00,48.0,25.0,-100.00,SSE,148,3.0,6.0,41,0.00,,,0.00,114.000000,,2013-03-08 23:42:00,
2013-03-08 18:53:00,48.0,25.0,-100.00,SSE,148,3.0,6.0,41,0.00,,,0.00,114.000000,,2013-03-08 23:53:00,
2013-03-08 19:02:00,48.0,25.0,-100.00,SSE,148,3.0,6.0,41,0.00,,,0.00,114.000000,,2013-03-09 00:02:00,
2013-03-08 19:32:00,44.0,27.0,-100.00,South,181,1.0,6.0,50,0.00,,,0.00,6.000000,,2013-03-09 00:32:00,
2013-03-08 19:42:00,44.0,27.0,-100.00,South,181,1.0,6.0,50,0.00,,,0.00,6.000000,,2013-03-09 00:42:00,
2013-03-08 19:52:00,44.0,27.0,-100.00,South,181,1.0,6.0,50,0.00,,,0.00,6.000000,,2013-03-09 00:52:00,
2013-03-08 20:02:00,44.0,27.0,-100.00,South,181,1.0,6.0,50,0.00,,,0.00,6.000000,,2013-03-09 01:02:00,
2013-03-08 22:32:00,40.0,25.0,-100.00,ENE,67,7.0,14.0,55,-99.99,,,0.00,0.000000,,2013-03-09 03:32:00,
2013-03-08 22:42:00,40.0,25.0,-100.00,ENE,67,7.0,14.0,55,-99.99,,,0.00,0.000000,,2013-03-09 03:42:00,
2013-03-08 22:52:00,40.0,25.0,-100.00,ENE,67,7.0,14.0,55,-99.99,,,0.00,0.000000,,2013-03-09 03:52:00,
2013-03-08 23:01:00,40.0,25.0,-100.00,ENE,67,7.0,14.0,55,-99.99,,,0.00,0.000000,,2013-03-09 04:01:00,
2013-03-08 23:32:00,39.0,26.0,-100.00,ENE,67,5.0,9.0,59,0.00,,,0.00,0.000000,,2013-03-09 04:32:00,
2013-03-08 23:42:00,39.0,26.0,-100.00,ENE,67,5.0,9.0,59,0.00,,,0.00,0.000000,,2013-03-09 04:42:00,
2013-03-08 23:52:00,39.0,26.0,-100.00,ENE,67,5.0,9.0,59,0.00,,,0.00,0.000000,,2013-03-09 04:52:00,